2023-001K (55018 NORAD) Tracking and Keplerian Element Data

This shows tracking and keplerian element data for the satellite.

Feedback or suggestion? Click here.




ElementValue
Catalog55018
Name2023-001K
Epoch Orbit169
Epoch Day13.78752194
Epoch Year2023
RAAN75.7283
Inclination97.5016
Eccentricity0.0011118
Argument of Perigee183.4597
Mean Anonmoly176.6558
Mean Motion15.12311379
Decay Rate0.00014983
L11 55018U 23001K 23013.78752194 .00014983 00000+0 86650-3 0 9999
L22 55018 97.5016 75.7283 0011118 183.4597 176.6558 15.12311379 1697



Live tracking and technical data element details for 2023-001K (NORAD 55018). 2023-001K can be tracked NOW for your location showing map with azimuth and elevation plus other details from your city location.







IsCatalogInMostPopularTable: catalog: 55018, numindb: 3
Update: records affected: 1



GetName: 55018 2023-001K

Hit Count: updated at: Tue, 07 Feb 2023 15:32:05 GMT